Regional Weather Roundup
Issued by NWS Green Bay, WI

Home | Current Version | Previous Version | Text Only | Print | Product List | Glossary On
Versions: 1 2 3 4 5 6 7 8 9 10 11 12 13 14 15 16 17 18 19 20 21 22 23 24 25 26 27 28 29 30 31 32 33 34 35 36 37 38 39 40 41 42 43 44 45 46 47 48 49 50
000
ASUS43 KGRB 171610
RWRGRB

NORTH-CENTRAL AND NORTHEAST WISCONSIN REGIONAL WEATHER ROUNDUP
NATIONAL WEATHER SERVICE GREEN BAY WI
1100 AM CDT WED SEP 17 2014

WIZ005-009-010>012-018-019-171700-
NORTH CENTRAL WISCONSIN

CITY           SKY/WX    TMP DP  RH WIND       PRES   REMARKS
IRONWOOD       PTSUNNY   61  48  63 W8        29.92S
MANITOWISH WTR SUNNY     61  47  59 W10       29.95S
ARBOR VITAE    SUNNY     62  48  61 NW7       29.96S
EAGLE RIVER    SUNNY     62  43  50 W8        29.95S
LAND O LAKES   SUNNY     62  45  52 W6        29.96S
RHINELANDER    SUNNY     61  46  57 W9        29.97S
PHILLIPS       SUNNY     60  49  65 SW5       29.96S
ANTIGO         SUNNY     62  48  61 W8        29.97S
TOMAHAWK       SUNNY     62  48  59 CALM      29.97S
MERRILL        PTSUNNY   61  50  67 W8        29.97S
$$

WIZ013-073-171700-
NORTHEAST WISCONSIN

CITY           SKY/WX    TMP DP  RH WIND       PRES   REMARKS
IRON MOUNTAIN  SUNNY     63  44  50 W10       29.93F
MARINETTE      SUNNY     63  46  55 W7        29.95F
OCONTO         SUNNY     63  48  58 W6        29.96F
$$

WIZ017-030-035>037-045-171700-
CENTRAL WISCONSIN

CITY           SKY/WX    TMP DP  RH WIND       PRES   REMARKS
MEDFORD        SUNNY     60  49  66 W7        29.98R
WAUSAU         MOSUNNY   62  49  62 W10       29.96F
MOSINEE        SUNNY     61  52  72 W8        29.99S
MARSHFIELD     MOSUNNY   62  49  62 W9        29.98S
WISC RAPIDS    SUNNY     62  48  60 W8        30.00F
STEVENS POINT  SUNNY     60  46  60 W8        29.99S
WAUPACA        NOT AVBL
SHAWANO        SUNNY     64  50  60 W7        29.97F
CLINTONVILLE   SUNNY     63  46  55 W8        29.98S
$$

WIZ038-039-048-051-171700-
FOX VALLEY

CITY           SKY/WX    TMP DP  RH WIND       PRES   REMARKS
NWS GREEN BAY  SUNNY     64  50  60 W7        29.98F
APPLETON       MOSUNNY   61  46  59 W9        29.99F
OSHKOSH        SUNNY     63  48  58 VRB7      29.99F
FOND DU LAC    SUNNY     63  48  58 W8        30.00F
$$

WIZ022-050-052-171700-
EAST CENTRAL WISCONSIN

CITY           SKY/WX    TMP DP  RH WIND       PRES   REMARKS
STURGEON BAY   SUNNY     61  46  59 W9        29.98F
MANITOWOC      SUNNY     64  48  56 NW7       29.99F
SHEBOYGAN      SUNNY     64  47  53 W8        30.00F
$$

LMZ563-521-522-541>543-171700-
LAKESHORE

STATION/POSITION TIME  TEMP    WIND        PRES    VSBY  WAVE
                       AIR SEA DIR/SP/G                  HT/PER
                 (UTC) (F)     (DEG/KT/KT) (MB)    (MI)  (FT/S)
SHEBOYGAN LKSHOR 1600   62 51  280/  5/  6 1016.0F
KEWAUNEE LKSHORE 1600   63     270/  5/  8 1014.3S
TWO RIVERS CG    1500   52 57              1017.2      6   0
NORTHPORT PIER   1600   63     280/  5/  9 1014.6F
N MID LAKE BUOY  1600   57 58  250/ 10/ 12 1014.8F         2/ 3
S GREEN BAY BUOY 1600   57     VRB  8/ 10  1015.9F
STURGEON BAY CG  1500   60 52  270/  4     1015.8      6   1
CHAMBERS ISLAND  1600   60     180/  3/  8 1014.9F
MENOMINEE LKSHOR 1600   61     240/  8/ 10 1015.2S
$$


USA.gov is the U.S. government's official web portal to all federal, state and local government web resources and services.